Alexandra Park, Ontario

8:45 PM EST on November 17, 2017 (GMT -0500)
Alexandra Park

Weather History for 71508 - July, 2013

Change the Weather History Date:

Friday, July 5, 2013

  Actual Average Record
Temperature  
Mean Temperature 74 °F -  
Max Temperature 77 °F - - ()
Min Temperature 70 °F - - ()
Cooling Degree Days 8    
Growing Degree Days 24 (Base 50)    
Moisture  
Dew Point 68 °F    
Average Humidity 85    
Maximum Humidity 91    
Minimum Humidity 77    
Precipitation  
Precipitation 0.31 in - - ()
Sea Level Pressure  
Sea Level Pressure 30.10 in    
Wind  
Wind Speed - ()    
Max Wind Speed -    
Max Gust Speed -    
T = Trace of Precipitation, MM = Missing Value Source: Averaged Metar Reports

Daily Weather History Graph

Daily Weather History Graph

Search for Another Location

Airport or City:

Trip Planner

Search our weather history database for the weather conditions in past years. The results will help you decide how hot, cold, wet, or windy it might be!

Date:

Astronomy

Jul. 05, 2013 Rise Set
Actual Time 5:42 AM EDT 9:01 PM EDT
Civil Twilight 5:06 AM EDT 9:37 PM EDT
Nautical Twilight 4:20 AM EDT 10:23 PM EDT
Astronomical Twilight 3:23 AM EDT 11:20 PM EDT
Moon 3:42 AM EDT (7/5) 6:53 PM EDT (7/5)
Length of Visible Light 16h 30m
Length of Day
15h 19m
Waning Crescent, 6% of the Moon is Illuminated
Jul 5
Waning Crescent
Jul 8
New
Jul 15
First Quarter
Jul 22
Full
Jul 29
Last Quarter

Hourly Weather History & Observations

Time (EDT) Temp. Dew Point Humidity Pressure Visibility Wind Dir Wind Speed Gust Speed Precip Events Conditions
12:00 AM 73.6 °F 67.8 °F 82% 30.12 in - North - - N/A   Unknown
1:00 AM 73.2 °F 67.6 °F 83% 30.11 in - North - - N/A   Unknown
2:00 AM 73 °F 67 °F 77% 30.11 in - Calm Calm - -  
2:00 AM 73.4 °F 67.3 °F 81% 30.11 in - North - - N/A   Unknown
3:00 AM 73.2 °F 66.7 °F 80% 30.11 in - North - - N/A   Unknown
4:00 AM 72.0 °F 67.1 °F 85% 30.11 in - North - - N/A   Unknown
5:00 AM 71.1 °F 66.9 °F 87% 30.11 in - North - - N/A   Unknown
6:00 AM 71.1 °F 67.3 °F 88% 30.11 in - North - - N/A   Unknown
7:00 AM 71.4 °F 67.8 °F 88% 30.11 in - North - - N/A   Unknown
8:00 AM 71 °F 68 °F 88% 30.11 in - Calm Calm - -  
8:00 AM 71.2 °F 68.2 °F 90% 30.11 in - North - - 0.01 in   Unknown
9:00 AM 72.1 °F 68.9 °F 89% 30.12 in - North - - N/A   Unknown
10:00 AM 71.8 °F 68.7 °F 90% 30.13 in - North - - 0.04 in   Unknown
11:00 AM 74.1 °F 69.6 °F 86% 30.12 in - North - - 0.02 in   Unknown
12:00 PM 75.4 °F 68.5 °F 79% 30.12 in - North - - N/A   Unknown
1:00 PM 74.3 °F 67.5 °F 79% 30.11 in - North - - N/A   Unknown
2:00 PM 73 °F 69 °F 83% 30.10 in - Calm Calm - -  
2:00 PM 73.2 °F 68.9 °F 86% 30.10 in - North - - N/A   Unknown
3:00 PM 73.4 °F 70.2 °F 90% 30.09 in - North - - 0.16 in   Unknown
4:00 PM 72.1 °F 69.4 °F 91% 30.09 in - North - - 0.11 in   Unknown
5:00 PM 74.5 °F 70.3 °F 87% 30.07 in - North - - 0.03 in   Unknown
6:00 PM 75.0 °F 69.4 °F 83% 30.06 in - North - - N/A   Unknown
7:00 PM 75.2 °F 70.3 °F 85% 30.05 in - North - - N/A   Unknown
8:00 PM 74 °F 70 °F 84% 30.06 in - Calm Calm - -  
8:00 PM 74.5 °F 70.2 °F 86% 30.06 in - North - - N/A   Unknown
9:00 PM 72.7 °F 68.4 °F 86% 30.06 in - North - - N/A   Unknown
10:00 PM 71.4 °F 68.2 °F 89% 30.07 in - North - - N/A   Unknown
11:00 PM 71.2 °F 68.2 °F 90% 30.07 in - North - - N/A   Unknown